Tracking 31027 objects as of 19-Jul-2025
HD Live streaming from Space Station
objects crossing your sky now

METEOR 2-5 DEB

Track METEOR 2-5 DEB now!
10-day predictions


NORAD ID: 38278
Int'l Code: 1979-095BY
Perigee: 782.8 km
Apogee: 787.9 km
Inclination: 81.2 °
Period: 100.4 minutes
Semi major axis: 7156 km
RCS: 0.007 m2 (small)
Launch date: October 31, 1979
Source: Commonwealth of Independent States (former USSR) (CIS)
Launch site: PLESETSK MISSILE AND SPACE COMPLEX (PKMTR)

Note: This is SATELLITE DEBRIS
Your satellite tracking list
ICEYE-X27
Track 1 satellite(s)




NASA's NSSDC Master Catalog

Two Line Element Set (TLE):
1 38278U 79095BY  25198.11199399  .00002688  00000-0  95760-3 0  9999
2 38278  81.1724 111.9822 0003601   0.6115  64.8415 14.34060757712522
Source of the keplerian elements: AFSPC